Regional Weather Roundup
Issued by NWS

Home | Current Version | Previous Version | Graphics & Text | Print | Product List | Glossary Off
Versions: 1 2 3 4 5 6 7 8 9 10 11 12 13 14 15 16 17 18 19 20 21 22 23 24 25 26 27 28 29 30 31 32 33 34 35 36 37 38 39 40 41 42 43 44 45 46 47 48 49 50

000
ASUS43 KTOP 061708
RWRKS

WEATHER ROUNDUP FOR KANSAS
NATIONAL WEATHER SERVICE GOODLAND KS
1200 PM CDT WED MAY 06 2015

NOTE:  "FAIR" INDICATES FEW OR NO CLOUDS BELOW 12,000 FEET WITH NO
SIGNIFICANT WEATHER AND/OR OBSTRUCTIONS TO VISIBILITY.

KSZ001>006-013>018-027>032-041>047-061800-
NORTHWEST KANSAS

CITY           SKY/WX    TMP DP  RH WIND       PRES   REMARKS
GOODLAND       CLOUDY    56  52  86 S12       29.68F
HAYS           CLOUDY    70  57  64 S22G30    29.72F
HILL CITY      CLOUDY    64  55  72 S17G25    29.71F
RUSSELL        CLOUDY    68  62  81 S23G32    29.72F
$$

KSZ061>065-074>080-084>089-061800-
SOUTHWEST KANSAS

CITY           SKY/WX    TMP DP  RH WIND       PRES   REMARKS
DODGE CITY     PTSUNNY   73  55  53 S26G36    29.71S
ELKHART          N/A     70  48  45 S16         N/A
GARDEN CITY    CLOUDY    67  55  65 S22G29    29.70S
GREAT BEND     CLOUDY    70  63  78 S25G33    29.73F
LIBERAL        MOSUNNY   72  57  60 S22       29.74S
PRATT          CLOUDY    70  61  73 S28G37    29.77S
$$

KSZ066>073-081>083-090>101-061800-
SOUTHEAST KANSAS

CITY           SKY/WX    TMP DP  RH WIND       PRES   REMARKS
CHANUTE        PTSUNNY   68  61  78 S26G36    29.97R
COFFEYVILLE    CLOUDY    65  62  90 SE12      29.97F
HUTCHINSON     CLOUDY    66  62  87 SE25G36   29.81S
MEDICINE LODGE   N/A     74  65  73 S25G39    29.76F
NEWTON         CLOUDY    63  57  82 S25G35    29.88F
PARSONS        CLOUDY    64  62  93 SE8G21    29.98S
WICHITA INTL   CLOUDY    65  62  90 SE25G32   29.84F
WICHITA JABRA  CLOUDY    64  61  90 SE20G29   29.86F
WICHITA MCCONL CLOUDY    64  63  94 SE26      29.86F
WINFIELD       CLOUDY    65  63  93 S20G28    29.90F
$$

KSZ007>012-019>026-033>040-048>060-102>105-061800-
NORTHEAST KANSAS

CITY           SKY/WX    TMP DP  RH WIND       PRES   REMARKS
CONCORDIA      CLOUDY    65  60  84 S23G30    29.80S
EMPORIA        CLOUDY    67  60  78 S25G32    29.92F
LAWRENCE       CLOUDY    65  60  84 S13       29.97S
MANHATTAN      PTSUNNY   71  61  70 S35G40    29.85S
MARYSVILLE     LGT RAIN  64  59  82 S20G25    29.85S
OLATHE IND     CLOUDY    66  59  78 S14       29.99R
OLATHE EXE     LGT RAIN  66  60  81 S14       29.98S
SALINA         CLOUDY    68  61  78 S29G38    29.81F
TOPEKA BILLARD LGT RAIN  64  61  90 SE10G23   29.94R
TOPEKA FORBES  CLOUDY    66  62  87 SE15      29.93S
$$



USA.gov is the U.S. government's official web portal to all federal, state and local government web resources and services.